DELTA 1 DEB

基本信息
目录编号:
10250
目录名称:
DELTA 1 DEB
国际标识:
1977-065CB
轨道中心:
EARTH
物体状态:
在轨
发射日期:
1977-07-14 UTC
轨道信息
数据来源: 国际轨道数据
星历时间: 2026-09-04T22:52:20+0800
半长轴: 7275.602km
偏心率: 0.0529603
轨道倾角: 29.077°
近地点辐角: 178.186°
升交点赤经: 81.108°
平近点角: 182.077°
近地点: 512.146km
远地点: 1282.784km
周期: 102.935分钟
每日圈数: 13.98941
详细信息
发射场:
AFETR
轨道高度:
LEO
数据来源:
AOE Integration Group
参考系:
TEME
时间系统:
UTC
历元类型:
SGP4
2D轨道图
3D轨道图
轨道高度分析图
轨道倾角分析图
轨道综合分析图
查看轨道综合分析图